[[{"header":{"parameterUnit":"m.s-1","parameterCategory":2,"la1":30.2991,"la2":30.254,"lo1":-89.0895,"lo2":-89.0444,"dy":0.0017,"dx":0.0017,"nx":28,"ny":28,"refTime":"2024-06-06T21:00:00:Z","depth":"0","parameterNumber":2,"parameterNumberName":"U-component_of_CURRENTS"},"data":[0,0,0,0,0,0,0,0,0,0,0,0,0,0,0,0,0,0,0,0,0,0,0,0,0,0,0,0,0,0,0,0,0,0,0,0,0,0,0,0,0,0,0,0,0,0,0,0,0,0,0,0,0,0,0,0,0,0,0.4058,0.4058,0,0.4063,0.4062,0.4062,0.4031,0.4031,0.403,0.403,0.402,0.402,0.402,0,0,0,0,0,0,0,0,0,0,0,0,0,0.4045,0.4045,0.4058,0.4058,0.4058,0.4063,0.4062,0.4062,0.4031,0.4031,0.403,0.4029,0.402,0.402,0.402,0,0,0,0,0,0,0,0,0,0,0,0,0,0.4048,0.4045,0.4058,0.4045,0.4045,0.4063,0.4062,0.4062,0.4032,0.4031,0.403,0.4029,0.4019,0.402,0.402,0.4042,0,0,0.4022,0.4022,0,0,0,0,0,0,0,0,0.4048,0.4048,0.4047,0.4046,0.4045,0.4048,0.4055,0.4056,0.4032,0.4034,0.403,0.4028,0.403,0.403,0.4029,0.4042,0.4041,0.4022,0.4022,0.4022,0.4023,0,0,0,0,0,0,0,0.4047,0.4048,0.4057,0.4047,0.4046,0.4048,0.4047,0.4055,0.4035,0.4033,0.4032,0.4037,0.4029,0.4029,0.4029,0.4041,0.4022,0.4022,0.4023,0.4023,0.4204,0.4209,0,0,0,0,0,0,0.4052,0.4048,0.4057,0.4057,0.4047,0.4049,0.4048,0.4046,0.4035,0.4033,0.4038,0.4036,0.4028,0.4028,0.4028,0.4144,0.4022,0.4023,0.4023,0.42,0.4205,0.421,0,0,0,0,0,0,0.4052,0.4053,0.4057,0.4055,0.4056,0.405,0.4049,0.4046,0.4052,0.4039,0.4036,0.4046,0.4028,0.4027,0.4058,0.4139,0.4023,0.4023,0.4195,0.4202,0.4208,0.4317,0,0,0,0,0,0,0.4051,0.4052,0.4056,0.4055,0.4056,0.408,0.405,0.4047,0.4057,0.4054,0.4046,0.4043,0.4027,0.4058,0.4059,0.4138,0.4024,0.4189,0.4198,0.4206,0.4307,0.4326,0.4342,0,0,0,0,0,0.4051,0.4062,0.4056,0.4057,0.406,0.4081,0.4082,0.4073,0.4059,0.4072,0.4073,0.4043,0.4114,0.406,0.4061,0.4142,0.4185,0.4195,0.4205,0.4299,0.4323,0.4342,0,0,0,0,0,0,0.4056,0.4061,0.4053,0.4064,0.4077,0.4077,0.409,0.4084,0.4094,0.4095,0.4073,0.4072,0.4145,0.413,0.4071,0.4228,0.4157,0.4168,0.4229,0.4251,0.4268,0.4304,0.4024,0,0,0,0,0,0.4061,0.4072,0.4077,0.4088,0.4096,0.4095,0.4103,0.4103,0.4111,0.4113,0.4108,0.4133,0.419,0.4202,0.4235,0.4292,0.4328,0.436,0.4377,0.4392,0.4428,0.4562,0.4594,0.4244,0.4244,0.4244,0,0,0.4066,0.4072,0.4076,0.4091,0.4098,0.4127,0.4097,0.4122,0.4161,0.4113,0.416,0.4187,0.4221,0.4304,0.4337,0.4295,0.4509,0.4405,0.4416,0.4445,0.4576,0.461,0.464,0.4251,0.4249,0.4248,0,0,0.4087,0.4089,0.4105,0.4124,0.4146,0.4158,0.417,0.4182,0.4202,0.4241,0.4259,0.434,0.4356,0.444,0.4476,0.4615,0.4602,0.4622,0.4729,0.4858,0.4888,0.4914,0.4987,0.502,0.4624,0.4624,0.4625,0,0.4092,0.411,0.4116,0.4142,0.4169,0.4176,0.4212,0.4245,0.4269,0.4325,0.4268,0.4429,0.4442,0.4621,0.4671,0.4659,0.4699,0.4633,0.488,0.4907,0.4932,0.5001,0.5035,0.4631,0.463,0.4629,0.4629,0,0.4121,0.4144,0.4162,0.42,0.4234,0.4269,0.4317,0.4368,0.4384,0.4427,0.4577,0.4615,0.472,0.4753,0.4741,0.4961,0.492,0.4887,0.4817,0.4974,0.5036,0.507,0.464,0.4638,0.4636,0.4634,0,0,0.4103,0.4168,0.4173,0.4207,0.4269,0.4301,0.4402,0.4506,0.4605,0.4648,0.4791,0.4911,0.4948,0.4999,0.5032,0.5142,0.5339,0.5087,0.5091,0.5145,0.5594,0.5421,0.5439,0.5338,0.5345,0.535,0.5558,0,0.4121,0.4179,0.4216,0.4293,0.4329,0.44,0.4497,0.4606,0.4692,0.4833,0.495,0.5079,0.5039,0.5105,0.5223,0.5323,0.5437,0.5285,0.5449,0.5454,0.5269,0.5477,0.5288,0.5446,0.559,0.5596,0.56,0,0.4126,0.4171,0.4234,0.4355,0.4381,0.4435,0.4617,0.4713,0.4932,0.5006,0.5176,0.5249,0.5466,0.5376,0.5645,0.5543,0.5592,0.5642,0.565,0.548,0.5345,0.532,0.5501,0.5397,0.5651,0.5647,0.5643,0,0.4092,0.4188,0.4241,0.4273,0.4405,0.4473,0.4567,0.4766,0.4898,0.5137,0.5257,0.5479,0.5607,0.5735,0.5815,0.5753,0.6067,0.5989,0.5889,0.5874,0.5746,0.5707,0.5836,0.6194,0.6193,0.6193,0.6192,0,0.4082,0.4129,0.4226,0.4251,0.436,0.4463,0.4626,0.476,0.4998,0.5177,0.5347,0.5518,0.5704,0.5877,0.5919,0.6011,0.6156,0.5969,0.595,0.5772,0.5736,0.5658,0.559,0.62,0.6199,0.6197,0.6196,0,0.4017,0.4081,0.4149,0.4281,0.4334,0.441,0.4634,0.4772,0.4991,0.5237,0.5321,0.5615,0.5816,0.5963,0.6179,0.6133,0.6068,0.6214,0.5957,0.5902,0.5636,0.558,0.5462,0.5301,0.6156,0.6154,0.6152,0,0.398,0.4004,0.4137,0.4194,0.4246,0.4385,0.45,0.4735,0.4887,0.5271,0.5384,0.5671,0.5839,0.609,0.6086,0.6162,0.6001,0.5981,0.5829,0.5652,0.5581,0.5335,0.5191,0.5713,0.5708,0.5703,0.57,0,0.3914,0.3959,0.4016,0.4128,0.4229,0.4368,0.4539,0.4651,0.4941,0.5143,0.5414,0.5589,0.5833,0.583,0.59,0.591,0.5689,0.5881,0.582,0.5363,0.4992,0.4814,0.5509,0.5659,0.5663,0.5666,0.5668,0.567,0.3857,0.3878,0.3959,0.4058,0.4182,0.4312,0.4363,0.4554,0.4751,0.4971,0.5239,0.5376,0.5543,0.562,0.5589,0.5431,0.5392,0.5299,0.5286,0.5083,0.4798,0.5356,0.5385,0.5387,0.5389,0.5391,0.5393,0,0.3763,0.3814,0.3901,0.3999,0.4074,0.4193,0.4359,0.4367,0.4475,0.471,0.4874,0.4997,0.5016,0.5103,0.5086,0.4917,0.468,0.4796,0.4489,0.4407,0.5061,0.4912,0.4689,0.4689,0.4689,0.4689,0.4689,0.4689,0.3725,0.3743,0.3788,0.3856,0.3931,0.3958,0.4004,0.4031,0.4137,0.4194,0.4241,0.4371,0.4678,0.4809,0.4702,0.4582,0.4274,0.4045,0.4032,0.4598,0.4645,0.469,0.4539,0.4241,0.4241,0.3207,0.3199,0.3194]},{"header":{"parameterUnit":"m.s-1","parameterCategory":2,"la1":30.2991,"la2":30.254,"lo1":-89.0895,"lo2":-89.0444,"dy":0.0017,"dx":0.0017,"nx":28,"ny":28,"refTime":"2024-06-06T21:00:00:Z","depth":"0","parameterNumber":3,"parameterNumberName":"V-component_of_CURRENTS"},"data":[0,0,0,0,0,0,0,0,0,0,0,0,0,0,0,0,0,0,0,0,0,0,0,0,0,0,0,0,0,0,0,0,0,0,0,0,0,0,0,0,0,0,0,0,0,0,0,0,0,0,0,0,0,0,0,0,0,0,0.0083,0.0082,0,-0.0001,-0.0002,-0.0003,-0.0065,-0.0066,-0.0066,-0.0066,-0.0192,-0.0195,-0.0198,0,0,0,0,0,0,0,0,0,0,0,0,0,0.012,0.012,0.0083,0.0082,0.0082,-0.0001,-0.0002,-0.0003,-0.0065,-0.0066,-0.0066,-0.0066,-0.0191,-0.0195,-0.0198,0,0,0,0,0,0,0,0,0,0,0,0,0,0.0075,0.012,0.0083,0.0043,0.0038,-0.0,-0.0002,-0.0004,-0.0065,-0.0066,-0.0066,-0.0067,-0.019,-0.0194,-0.0199,-0.0217,0,0,-0.0213,-0.0215,0,0,0,0,0,0,0,0,0.0078,0.0073,0.0049,0.0045,0.004,-0.0021,-0.0035,-0.0076,-0.0065,-0.0028,-0.0066,-0.0067,-0.0137,-0.0146,-0.0163,-0.0223,-0.0229,-0.0213,-0.0216,-0.0218,-0.0219,0,0,0,0,0,0,0,0.0081,0.0076,0.0047,0.0049,0.0043,0.0005,-0.0002,-0.0044,-0.0082,-0.0032,-0.0036,-0.0041,-0.014,-0.0159,-0.0167,-0.0231,-0.0213,-0.0217,-0.022,-0.0222,-0.0336,-0.0337,0,0,0,0,0,0,0.01,0.008,0.005,0.0045,0.0061,0.0005,-0.0003,-0.0003,-0.008,-0.0092,-0.0041,-0.0044,-0.0151,-0.0161,-0.0172,-0.0188,-0.0218,-0.0222,-0.0225,-0.0336,-0.0336,-0.0337,0,0,0,0,0,0,0.0102,0.0099,0.0054,0.0062,0.0054,0.0006,0.0005,-0.0004,-0.002,-0.0086,-0.0099,-0.0045,-0.0152,-0.0165,-0.0204,-0.0194,-0.0224,-0.0229,-0.0336,-0.0336,-0.0336,-0.0228,0,0,0,0,0,0,0.0103,0.01,0.0105,0.0064,0.0054,0.0041,0.0006,-0.0005,-0.0021,-0.0026,-0.0095,-0.0107,-0.0153,-0.0197,-0.0209,-0.0201,-0.0232,-0.0335,-0.0336,-0.0336,-0.0231,-0.0225,-0.0219,0,0,0,0,0,0.0105,0.0121,0.0106,0.0102,0.0063,0.0042,0.0034,-0.0005,-0.002,-0.0022,-0.007,-0.0105,-0.0209,-0.02,-0.0214,-0.0207,-0.0335,-0.0336,-0.0336,-0.0234,-0.0226,-0.0219,0,0,0,0,0,0,0.0138,0.0115,0.0097,0.0104,0.0079,0.0033,0.003,0.0004,-0.0035,-0.0038,-0.0104,-0.0119,-0.0153,-0.0198,-0.0187,-0.0246,-0.028,-0.0283,-0.0198,-0.0191,-0.0185,-0.0142,-0.0236,0,0,0,0,0,0.0149,0.0157,0.0122,0.0128,0.0119,0.0076,0.0063,0.004,0.0001,-0.0016,-0.0063,-0.0119,-0.0168,-0.0191,-0.0242,-0.0266,-0.0279,-0.0276,-0.027,-0.0264,-0.0241,-0.0253,-0.0244,-0.0339,-0.0339,-0.0339,0,0,0.0164,0.0153,0.0156,0.0136,0.0113,0.0113,0.0067,0.0058,0.0058,-0.0023,-0.0038,-0.0098,-0.0172,-0.0203,-0.0222,-0.0236,-0.0244,-0.0265,-0.0259,-0.0239,-0.0252,-0.0243,-0.0234,-0.0339,-0.0339,-0.0339,0,0,0.0204,0.0189,0.0207,0.0194,0.0172,0.0146,0.015,0.011,0.0092,0.0067,0.0007,-0.0041,-0.0112,-0.0159,-0.0194,-0.0186,-0.0213,-0.021,-0.0139,-0.015,-0.0141,-0.0134,-0.0124,-0.0116,-0.0203,-0.0203,-0.0203,0,0.0221,0.0242,0.0208,0.0222,0.0223,0.0169,0.0191,0.0164,0.0117,0.0115,0.0077,-0.0018,-0.009,-0.0118,-0.0125,-0.0169,-0.0168,-0.0154,-0.0137,-0.013,-0.0124,-0.0116,-0.0109,-0.0198,-0.0199,-0.0199,-0.02,0,0.0272,0.0288,0.0301,0.0303,0.0296,0.0308,0.0273,0.0265,0.0234,0.0206,0.0174,0.0079,0.0026,-0.0014,-0.007,-0.0068,-0.0078,-0.0125,-0.0142,-0.0107,-0.0102,-0.0097,-0.0191,-0.0193,-0.0194,-0.0195,0,0,0.0322,0.0335,0.0342,0.0365,0.0346,0.0353,0.0358,0.0354,0.038,0.031,0.0339,0.022,0.0174,0.0131,0.0053,0.0033,0.0058,-0.0017,-0.002,0.0018,0.0064,0.0022,0.0024,0.0025,0.0026,0.0027,0.0057,0,0.0376,0.0432,0.0418,0.0474,0.0502,0.0466,0.0484,0.0472,0.0448,0.0461,0.0369,0.0354,0.0228,0.0215,0.017,0.0094,0.0076,0.0056,0.0002,0.0001,-0.002,0.0029,0.0057,0.0083,0.0062,0.0063,0.0063,0,0.0438,0.047,0.0538,0.0581,0.0591,0.0614,0.0652,0.0659,0.065,0.0636,0.0597,0.0531,0.0481,0.0375,0.0272,0.0273,0.018,0.0113,0.0112,0.0043,-0.0031,0.0037,0.0093,-0.0145,0.0071,0.0071,0.007,0,0.0512,0.0561,0.0625,0.0637,0.0667,0.0702,0.0719,0.0722,0.0764,0.0764,0.081,0.0708,0.0704,0.0566,0.0395,0.0351,0.0306,0.022,0.0097,0.0094,0.0091,0.0085,-0.0068,0.0159,0.0159,0.0159,0.0159,0,0.0585,0.0638,0.0672,0.0711,0.0805,0.0791,0.0889,0.089,0.0933,0.1033,0.0915,0.0986,0.0758,0.0689,0.0493,0.0331,0.0375,0.0137,0.0103,0.0127,0.0124,-0.0108,-0.0247,0.016,0.016,0.0159,0.0159,0,0.0657,0.0676,0.0758,0.0814,0.0846,0.0914,0.1012,0.1084,0.1111,0.1248,0.1268,0.1226,0.1146,0.0906,0.0715,0.049,0.0183,0.0238,0.0289,0.0259,-0.0116,-0.0249,-0.0428,-0.0538,0.0114,0.0113,0.0112,0,0.0699,0.075,0.0845,0.0911,0.0946,0.1046,0.1128,0.1172,0.1273,0.1417,0.1512,0.1481,0.1512,0.12,0.0796,0.0467,0.0209,0.024,0.0125,-0.011,-0.0283,-0.0395,-0.0483,0.0176,0.0176,0.0176,0.0176,0,0.0782,0.0816,0.0885,0.1021,0.1123,0.1244,0.1374,0.1487,0.1589,0.1743,0.1943,0.1994,0.1698,0.1388,0.0885,0.0623,0.0065,0.0225,-0.0025,-0.0246,-0.0367,-0.0496,0.0135,0.0175,0.0175,0.0175,0.0175,0.0175,0.0848,0.0913,0.1012,0.1142,0.1268,0.1444,0.158,0.1759,0.1986,0.2253,0.2264,0.241,0.1913,0.1246,0.0832,0.0079,0.0049,-0.0159,-0.0293,-0.0379,-0.0521,0.011,0.0098,0.0098,0.0097,0.0097,0.0097,0,0.0928,0.1003,0.1128,0.1297,0.1456,0.1505,0.175,0.1923,0.2245,0.2499,0.2693,0.2558,0.1928,0.1237,0.023,-0.0328,-0.0541,-0.0633,-0.0786,-0.0848,-0.0274,-0.0311,-0.0404,-0.0403,-0.0403,-0.0403,-0.0403,-0.0402,0.0975,0.1102,0.1164,0.1432,0.1563,0.18,0.1956,0.2244,0.2478,0.2828,0.2955,0.2994,0.25,0.0712,-0.0529,-0.083,-0.1208,-0.1301,-0.1507,-0.1129,-0.1095,-0.1063,-0.1132,-0.1395,-0.1397,-0.2007,-0.2013,-0.2018]}],[{"header":{"parameterUnit":"m.s-1","parameterCategory":2,"la1":30.2991,"la2":30.254,"lo1":-89.0895,"lo2":-89.0444,"dy":0.0017,"dx":0.0017,"nx":28,"ny":28,"refTime":"2024-06-06T21:00:00:Z","depth":"2","parameterNumber":2,"parameterNumberName":"U-component_of_CURRENTS"},"data":[0,0,0,0,0,0,0,0,0,0,0,0,0,0,0,0,0,0,0,0,0,0,0,0,0,0,0,0,0,0,0,0,0,0,0,0,0,0,0,0,0,0,0,0,0,0,0,0,0,0,0,0,0,0,0,0,0,0,0.3481,0.3481,0,0.3504,0.3504,0.3504,0.3497,0.3497,0.3497,0.3497,0.3487,0.3487,0.3487,0,0,0,0,0,0,0,0,0,0,0,0,0,0.3433,0.3434,0.3481,0.3481,0.3482,0.3504,0.3504,0.3504,0.3497,0.3497,0.3497,0.3496,0.3487,0.3487,0.3487,0,0,0,0,0,0,0,0,0,0,0,0,0,0.3452,0.3434,0.348,0.3483,0.3484,0.3504,0.3504,0.3504,0.3497,0.3497,0.3497,0.3496,0.3487,0.3487,0.3487,0.3494,0,0,0.3487,0.3487,0,0,0,0,0,0,0,0,0.3451,0.3454,0.3482,0.3483,0.3484,0.35,0.3484,0.35,0.3497,0.3489,0.3497,0.3496,0.349,0.349,0.3492,0.3493,0.3493,0.3487,0.3486,0.3486,0.3486,0,0,0,0,0,0,0,0.345,0.3453,0.3487,0.3483,0.3484,0.3485,0.3486,0.3487,0.3489,0.349,0.349,0.3497,0.349,0.3492,0.3491,0.3492,0.3487,0.3486,0.3486,0.3486,0.3573,0.3575,0,0,0,0,0,0,0.3453,0.3452,0.3486,0.3488,0.3469,0.3486,0.3488,0.3493,0.3489,0.349,0.3498,0.3497,0.3492,0.3491,0.3491,0.356,0.3486,0.3486,0.3486,0.3571,0.3574,0.3576,0,0,0,0,0,0,0.3452,0.3456,0.3485,0.3473,0.3477,0.3487,0.3493,0.3493,0.351,0.3496,0.3495,0.3515,0.3492,0.3491,0.3516,0.3557,0.3486,0.3486,0.3568,0.3572,0.3575,0.366,0,0,0,0,0,0,0.345,0.3455,0.3464,0.3473,0.3478,0.3513,0.3493,0.3494,0.3515,0.3515,0.3511,0.3508,0.3491,0.3516,0.3516,0.3556,0.3486,0.3565,0.357,0.3574,0.3654,0.3666,0.3676,0,0,0,0,0,0.3448,0.3465,0.3464,0.3469,0.3488,0.3514,0.3517,0.3521,0.3517,0.3532,0.3535,0.3509,0.3544,0.3518,0.3517,0.3558,0.3563,0.3568,0.3574,0.3649,0.3663,0.3675,0,0,0,0,0,0,0.3447,0.3466,0.3465,0.3485,0.3505,0.3514,0.3532,0.3534,0.3548,0.3552,0.3532,0.3531,0.3573,0.3556,0.3528,0.3599,0.3552,0.3558,0.361,0.3624,0.3634,0.366,0.3486,0,0,0,0,0,0.3451,0.347,0.3486,0.3505,0.3517,0.3527,0.354,0.3547,0.3559,0.3565,0.3563,0.3571,0.3592,0.3599,0.3609,0.3641,0.3661,0.3671,0.3682,0.3691,0.3713,0.3793,0.3813,0.3594,0.3594,0.3593,0,0,0.3455,0.347,0.348,0.3507,0.352,0.3548,0.3534,0.3565,0.3593,0.3562,0.3599,0.3608,0.3611,0.3653,0.367,0.3644,0.3764,0.3698,0.3705,0.3723,0.3801,0.3822,0.3841,0.3597,0.3596,0.3596,0,0,0.3472,0.3488,0.3507,0.353,0.3562,0.3576,0.359,0.3613,0.3629,0.3665,0.3662,0.3704,0.3712,0.3739,0.375,0.383,0.3821,0.3827,0.3899,0.3976,0.3995,0.4012,0.4061,0.4082,0.383,0.383,0.383,0,0.3475,0.3501,0.3519,0.3546,0.3571,0.3592,0.3623,0.3648,0.3677,0.3708,0.3689,0.3763,0.3762,0.3839,0.387,0.3856,0.3888,0.3844,0.3991,0.4008,0.4024,0.4071,0.4092,0.3834,0.3834,0.3833,0.3833,0,0.35,0.353,0.3549,0.359,0.3621,0.3656,0.3694,0.3732,0.3755,0.3783,0.3863,0.3879,0.3926,0.3937,0.3926,0.4042,0.4024,0.3997,0.3957,0.4052,0.4094,0.4115,0.3841,0.384,0.3838,0.3837,0,0,0.348,0.3551,0.3557,0.3579,0.3649,0.3668,0.3743,0.3809,0.3863,0.3908,0.3988,0.4043,0.4065,0.4082,0.4085,0.4154,0.4287,0.413,0.4132,0.4177,0.4451,0.4367,0.4381,0.4288,0.4293,0.4296,0.4433,0,0.3492,0.3541,0.3585,0.3639,0.3665,0.3727,0.379,0.386,0.3922,0.4007,0.4069,0.4143,0.4115,0.4154,0.4223,0.4278,0.4348,0.4252,0.4354,0.4357,0.427,0.4405,0.4039,0.4125,0.4454,0.4457,0.446,0,0.3494,0.3528,0.358,0.3658,0.3678,0.3723,0.3831,0.3894,0.4031,0.4088,0.4191,0.424,0.4367,0.432,0.4477,0.4418,0.4452,0.4483,0.4488,0.4398,0.4313,0.4085,0.415,0.4495,0.4492,0.4489,0.4487,0,0.3441,0.3521,0.3559,0.3585,0.3681,0.3729,0.3792,0.3919,0.3999,0.4159,0.4246,0.4373,0.4462,0.4541,0.4607,0.4561,0.4768,0.4703,0.4658,0.465,0.4354,0.4314,0.4825,0.4825,0.4825,0.4825,0.4824,0,0.3425,0.3451,0.3537,0.3551,0.3613,0.3695,0.3791,0.3881,0.4045,0.4147,0.4285,0.4392,0.4529,0.4649,0.4676,0.4746,0.4827,0.4713,0.4702,0.4372,0.4333,0.4656,0.4634,0.483,0.4828,0.4827,0.4827,0,0.3354,0.3413,0.3454,0.3551,0.3587,0.3629,0.3786,0.3854,0.4027,0.4176,0.4243,0.4461,0.4614,0.4727,0.4871,0.4834,0.4902,0.4895,0.4492,0.4432,0.471,0.4691,0.4871,0.487,0.4869,0.4868,0.4867,0,0.3318,0.3334,0.3429,0.3456,0.3501,0.3587,0.3647,0.3823,0.3909,0.419,0.425,0.4487,0.4602,0.4802,0.4799,0.486,0.4922,0.453,0.4379,0.4755,0.4726,0.4709,0.4693,0.4013,0.4006,0.3999,0.3994,0,0.3247,0.3288,0.3322,0.3377,0.3432,0.3497,0.3601,0.3668,0.3871,0.4013,0.42,0.4336,0.4549,0.4461,0.4558,0.4526,0.4491,0.4404,0.4931,0.4061,0.3958,0.3926,0.3935,0.3938,0.3944,0.3948,0.3951,0.3953,0.3192,0.3197,0.3245,0.3287,0.334,0.337,0.337,0.3488,0.3598,0.3744,0.3987,0.4066,0.4163,0.4139,0.4036,0.3958,0.4264,0.4051,0.4065,0.4087,0.3966,0.3867,0.3807,0.3811,0.3815,0.3819,0.3822,0,0.3099,0.3119,0.315,0.3171,0.3153,0.3242,0.3299,0.3258,0.3286,0.3474,0.3607,0.3422,0.3411,0.35,0.331,0.3331,0.3242,0.3177,0.3017,0.3079,0.3133,0.2956,0.2532,0.2527,0.2523,0.2519,0,0,0.3053,0.3026,0.3036,0.2967,0.2983,0.2902,0.2894,0.2866,0.2929,0.2926,0.2961,0.3269,0.3423,0.2931,0.2882,0.2665,0.2832,0.2558,0.3608,0.3482,0.3529,0.3673,0.3478,0,0,0,0,0]},{"header":{"parameterUnit":"m.s-1","parameterCategory":2,"la1":30.2991,"la2":30.254,"lo1":-89.0895,"lo2":-89.0444,"dy":0.0017,"dx":0.0017,"nx":28,"ny":28,"refTime":"2024-06-06T21:00:00:Z","depth":"2","parameterNumber":3,"parameterNumberName":"V-component_of_CURRENTS"},"data":[0,0,0,0,0,0,0,0,0,0,0,0,0,0,0,0,0,0,0,0,0,0,0,0,0,0,0,0,0,0,0,0,0,0,0,0,0,0,0,0,0,0,0,0,0,0,0,0,0,0,0,0,0,0,0,0,0,0,0.0113,0.0112,0,0.0035,0.0034,0.0033,-0.0021,-0.0021,-0.0022,-0.0022,-0.0118,-0.012,-0.0122,0,0,0,0,0,0,0,0,0,0,0,0,0,0.0147,0.0147,0.0113,0.0112,0.0111,0.0036,0.0034,0.0033,-0.0021,-0.0021,-0.0022,-0.0022,-0.0117,-0.012,-0.0123,0,0,0,0,0,0,0,0,0,0,0,0,0,0.0105,0.0147,0.0113,0.0076,0.0073,0.0036,0.0034,0.0033,-0.0021,-0.0021,-0.0022,-0.0022,-0.0116,-0.012,-0.0123,-0.0138,0,0,-0.0134,-0.0135,0,0,0,0,0,0,0,0,0.0108,0.0104,0.0083,0.0079,0.0075,0.0018,0.0011,-0.0024,-0.0021,0.0012,-0.0022,-0.0022,-0.0072,-0.008,-0.0096,-0.0142,-0.0146,-0.0134,-0.0136,-0.0138,-0.0139,0,0,0,0,0,0,0,0.0111,0.0106,0.008,0.0082,0.0077,0.0042,0.0036,0.0004,-0.0029,0.0009,0.0006,0.0001,-0.0075,-0.0093,-0.0099,-0.0148,-0.0134,-0.0137,-0.0139,-0.0141,-0.0202,-0.0201,0,0,0,0,0,0,0.0129,0.011,0.0082,0.0078,0.0093,0.0042,0.0035,0.0035,-0.0029,-0.0038,0.0001,-0.0002,-0.0086,-0.0095,-0.0102,-0.01,-0.0138,-0.0141,-0.0143,-0.0202,-0.0201,-0.0201,0,0,0,0,0,0,0.013,0.0127,0.0085,0.0093,0.0086,0.0042,0.0042,0.0034,0.002,-0.0034,-0.0044,-0.0003,-0.0087,-0.0097,-0.0124,-0.0105,-0.0143,-0.0146,-0.0203,-0.0202,-0.0201,-0.011,0,0,0,0,0,0,0.0131,0.0128,0.0133,0.0095,0.0086,0.0074,0.0042,0.0032,0.0018,0.0014,-0.0041,-0.0051,-0.0088,-0.0118,-0.0127,-0.011,-0.0148,-0.0203,-0.0202,-0.0201,-0.0114,-0.0106,-0.01,0,0,0,0,0,0.0133,0.0147,0.0133,0.013,0.0095,0.0075,0.0068,0.0033,0.0019,0.0018,-0.0019,-0.0049,-0.0119,-0.0121,-0.0132,-0.0115,-0.0204,-0.0203,-0.0202,-0.0117,-0.0108,-0.01,0,0,0,0,0,0,0.0162,0.0141,0.0126,0.0132,0.011,0.0067,0.0065,0.0042,0.001,0.0008,-0.0045,-0.0057,-0.0075,-0.0108,-0.0109,-0.0131,-0.0165,-0.0166,-0.0097,-0.0089,-0.0082,-0.0055,-0.0151,0,0,0,0,0,0.0173,0.018,0.0148,0.0154,0.0146,0.0107,0.0094,0.0073,0.0042,0.0028,-0.0011,-0.0049,-0.008,-0.0094,-0.013,-0.014,-0.0171,-0.0137,-0.013,-0.0123,-0.0109,-0.0136,-0.013,-0.0197,-0.0197,-0.0197,0,0,0.0186,0.0176,0.0179,0.0161,0.014,0.0141,0.0098,0.0089,0.0093,0.0023,0.0015,-0.003,-0.0079,-0.0093,-0.0103,-0.0116,-0.0123,-0.0122,-0.0116,-0.0105,-0.0134,-0.0128,-0.0122,-0.0197,-0.0197,-0.0197,0,0,0.0221,0.0208,0.0225,0.0213,0.0193,0.0171,0.0174,0.0138,0.0124,0.0107,0.006,0.0032,-0.0018,-0.0045,-0.0066,-0.0042,-0.009,-0.0056,0.0007,-0.0019,-0.0014,-0.0009,-0.0044,-0.0044,-0.0047,-0.0046,-0.0046,0,0.0237,0.0256,0.0226,0.0239,0.0241,0.0192,0.0213,0.0191,0.0151,0.0153,0.0118,0.0056,0.0008,0.0003,0.0006,-0.0024,-0.0051,-0.0018,-0.0008,-0.0004,-0.0001,-0.0039,-0.0039,-0.0042,-0.0042,-0.0043,-0.0043,0,0.0282,0.0298,0.0309,0.0313,0.0309,0.032,0.0291,0.0287,0.0262,0.0239,0.0222,0.0151,0.012,0.0097,0.0056,0.0061,0.0029,0.0001,-0.0024,0.0011,-0.0031,-0.0033,-0.0035,-0.0037,-0.0038,-0.0039,0,0,0.0325,0.0339,0.0345,0.0369,0.0354,0.0362,0.0373,0.0376,0.0402,0.0343,0.0367,0.0293,0.0254,0.0228,0.0171,0.0143,0.0129,0.0089,0.0086,0.0064,0.0067,0.0036,0.003,0.0104,0.0104,0.0105,0.0026,0,0.0373,0.0425,0.0415,0.0469,0.0497,0.0469,0.0492,0.0487,0.0469,0.0477,0.0406,0.0398,0.0305,0.0298,0.0252,0.0166,0.0129,0.0153,0.0027,0.0023,0.0001,0.0029,0.0062,-0.0005,0.0024,0.0023,0.0023,0,0.0428,0.0459,0.0521,0.057,0.0581,0.0604,0.0647,0.0661,0.0653,0.064,0.0607,0.0547,0.0496,0.0413,0.028,0.03,0.0193,0.0115,0.011,0.0052,-0.001,-0.0036,-0.001,0.0019,0.002,0.002,0.002,0,0.0492,0.0541,0.0601,0.0613,0.0649,0.0683,0.0708,0.0718,0.0763,0.0752,0.0782,0.0684,0.0662,0.0517,0.0336,0.0314,0.0188,0.0136,0.0005,0.0,-0.0011,-0.0016,0.0045,0.0045,0.0046,0.0046,0.0046,0,0.0558,0.0607,0.0641,0.0675,0.077,0.0763,0.086,0.0869,0.0907,0.0989,0.0878,0.0912,0.069,0.0583,0.0393,0.0199,0.0226,0.0025,-0.0014,0.002,0.0018,0.0008,0.0004,0.0043,0.0044,0.0044,0.0045,0,0.0621,0.0637,0.0714,0.0771,0.0804,0.0874,0.0979,0.1048,0.1067,0.1171,0.1181,0.1094,0.0956,0.0719,0.0488,0.0296,0.01,0.0021,0.0069,0.0036,-0.009,-0.0087,-0.0131,-0.0132,-0.0133,-0.0135,-0.0135,0,0.0657,0.0702,0.0794,0.0859,0.0892,0.0996,0.108,0.1131,0.122,0.1294,0.136,0.1257,0.1211,0.0845,0.049,0.016,0.0107,-0.004,-0.0083,-0.0069,-0.0104,-0.01,-0.0096,-0.0069,-0.007,-0.007,-0.007,0,0.0731,0.0758,0.0824,0.0958,0.1058,0.1184,0.131,0.1407,0.1487,0.1574,0.1659,0.1629,0.1288,0.0951,0.0482,0.0254,0.0011,-0.0057,-0.0037,-0.0028,-0.0017,-0.005,-0.0047,-0.0072,-0.0072,-0.0072,-0.0072,-0.0072,0.0789,0.085,0.094,0.1069,0.1194,0.1359,0.1482,0.1618,0.1781,0.1915,0.1871,0.1828,0.1441,0.0845,0.0433,-0.001,0.0014,-0.0148,-0.0144,-0.0141,-0.0118,-0.011,-0.0179,-0.0179,-0.018,-0.018,-0.018,0,0.0863,0.093,0.1048,0.1206,0.1351,0.1412,0.1627,0.1749,0.195,0.2047,0.2104,0.1745,0.1365,0.091,0.026,-0.0121,-0.0149,-0.0248,-0.0199,-0.0193,-0.0188,-0.0167,-0.0241,-0.0243,-0.0244,-0.0245,0,0,0.0905,0.102,0.1074,0.131,0.1432,0.1644,0.1776,0.1951,0.2066,0.2157,0.2127,0.2047,0.1509,0.1025,0.0504,0.0127,0.0054,0.0052,0.0147,0.0274,0.0283,-0.0083,-0.0036,0,0,0,0,0]}],[{"header":{"parameterUnit":"m.s-1","parameterCategory":2,"la1":30.2991,"la2":30.254,"lo1":-89.0895,"lo2":-89.0444,"dy":0.0017,"dx":0.0017,"nx":28,"ny":28,"refTime":"2024-06-06T21:00:00:Z","depth":"4","parameterNumber":2,"parameterNumberName":"U-component_of_CURRENTS"},"data":[0,0,0,0,0,0,0,0,0,0,0,0,0,0,0,0,0,0,0,0,0,0,0,0,0,0,0,0,0,0,0,0,0,0,0,0,0,0,0,0,0,0,0,0,0,0,0,0,0,0,0,0,0,0,0,0,0,0,0.2337,0.2338,0,0.2418,0.2419,0.2419,0.2489,0.249,0.2491,0.2492,0.2569,0.257,0.2571,0,0,0,0,0,0,0,0,0,0,0,0,0,0.223,0.2231,0.2337,0.2338,0.234,0.2418,0.2419,0.2419,0.2489,0.249,0.2491,0.2493,0.2568,0.2569,0.2571,0,0,0,0,0,0,0,0,0,0,0,0,0,0.2287,0.2232,0.2337,0.2386,0.2391,0.2418,0.2419,0.242,0.2489,0.249,0.2492,0.2493,0.2568,0.2569,0.2571,0.255,0,0,0.2576,0.2577,0,0,0,0,0,0,0,0,0.2284,0.2291,0.2377,0.2382,0.2388,0.2447,0.2409,0.2464,0.2488,0.2449,0.2492,0.2494,0.2528,0.2533,0.2541,0.2554,0.2557,0.2576,0.2577,0.2578,0.2578,0,0,0,0,0,0,0,0.228,0.2288,0.2367,0.2378,0.2385,0.2399,0.2409,0.2419,0.2477,0.2452,0.2458,0.2471,0.2531,0.2539,0.2544,0.2558,0.2576,0.2577,0.2578,0.2579,0.2691,0.2692,0,0,0,0,0,0,0.2274,0.2284,0.2364,0.2369,0.2342,0.24,0.2411,0.2425,0.2477,0.2487,0.2469,0.2474,0.2536,0.2542,0.2547,0.2653,0.2578,0.2579,0.258,0.2689,0.2691,0.2693,0,0,0,0,0,0,0.2272,0.2281,0.2361,0.233,0.2342,0.24,0.2415,0.2426,0.2486,0.249,0.25,0.2526,0.2537,0.2544,0.2604,0.2651,0.258,0.2581,0.2686,0.2689,0.2692,0.2783,0,0,0,0,0,0,0.2268,0.2279,0.2311,0.233,0.2344,0.241,0.2415,0.2426,0.2489,0.2497,0.2541,0.2547,0.2539,0.2601,0.2605,0.2652,0.2583,0.2684,0.2688,0.2691,0.2777,0.2788,0.2798,0,0,0,0,0,0.2264,0.2294,0.2311,0.2323,0.2377,0.2411,0.2421,0.2464,0.2491,0.2524,0.2559,0.2548,0.2628,0.2604,0.2608,0.2657,0.2682,0.2687,0.2691,0.2772,0.2786,0.2798,0,0,0,0,0,0,0.2265,0.2304,0.2324,0.2366,0.2403,0.2425,0.2468,0.2493,0.2545,0.257,0.2572,0.2581,0.2651,0.264,0.2614,0.27,0.2653,0.2659,0.2714,0.2727,0.2737,0.2737,0.2584,0,0,0,0,0,0.2278,0.2317,0.2346,0.2388,0.2411,0.2449,0.2479,0.2509,0.2546,0.2574,0.2603,0.2634,0.2662,0.2686,0.2706,0.2751,0.2756,0.2785,0.2795,0.2804,0.2807,0.2861,0.2877,0.2708,0.2708,0.2708,0,0,0.2291,0.2319,0.2344,0.2393,0.2428,0.2464,0.2473,0.2534,0.2574,0.2571,0.2653,0.2677,0.2684,0.2739,0.2769,0.2743,0.2859,0.281,0.2817,0.2815,0.2868,0.2884,0.2899,0.2711,0.271,0.271,0,0,0.2317,0.2364,0.2399,0.2433,0.2495,0.2515,0.2544,0.2595,0.2637,0.2703,0.2715,0.2768,0.2815,0.2826,0.2835,0.2912,0.2914,0.2931,0.2984,0.3037,0.3052,0.3064,0.3107,0.3123,0.2934,0.2934,0.2934,0,0.2336,0.2378,0.2416,0.2454,0.2492,0.2542,0.2583,0.2625,0.2693,0.2729,0.2747,0.2838,0.2849,0.2902,0.2937,0.2936,0.297,0.2936,0.3052,0.3064,0.3075,0.3116,0.3132,0.2939,0.2938,0.2938,0.2937,0,0.2366,0.2422,0.245,0.2513,0.2555,0.2607,0.2657,0.2721,0.2781,0.2815,0.2907,0.2933,0.2985,0.3001,0.2997,0.3084,0.3085,0.3061,0.3019,0.3098,0.3136,0.3151,0.2946,0.2944,0.2943,0.2942,0,0,0.2347,0.2451,0.2467,0.2502,0.2596,0.262,0.2709,0.2779,0.284,0.2919,0.2995,0.3054,0.3088,0.31,0.3111,0.3156,0.3271,0.3159,0.3159,0.32,0.3407,0.3205,0.3202,0.3286,0.3289,0.3291,0.3406,0,0.2365,0.2435,0.2491,0.2567,0.2602,0.2683,0.2749,0.2825,0.2906,0.2994,0.3046,0.3126,0.3119,0.317,0.3217,0.3266,0.3315,0.3243,0.3324,0.3326,0.3137,0.3213,0.33,0.3417,0.3421,0.3423,0.3425,0,0.2363,0.2413,0.249,0.2584,0.261,0.2672,0.2788,0.2858,0.2985,0.3052,0.3149,0.3203,0.3303,0.3281,0.3404,0.3372,0.3403,0.3423,0.3428,0.3213,0.3151,0.3319,0.3452,0.345,0.3448,0.3446,0.3444,0,0.2295,0.2405,0.2467,0.2503,0.262,0.2684,0.276,0.2885,0.2962,0.3114,0.3197,0.3301,0.3393,0.3451,0.3518,0.3489,0.364,0.3592,0.3431,0.3418,0.3526,0.3511,0.3668,0.3668,0.3667,0.3667,0.3667,0,0.226,0.2312,0.245,0.2478,0.2559,0.2657,0.2765,0.2859,0.3012,0.3093,0.3236,0.3312,0.3451,0.355,0.357,0.3554,0.3689,0.345,0.3434,0.3562,0.355,0.3537,0.3521,0.3671,0.367,0.367,0.3669,0,0.2168,0.2265,0.2339,0.2479,0.2532,0.2592,0.2771,0.2831,0.3007,0.3129,0.3194,0.3381,0.3498,0.3602,0.3709,0.3608,0.3614,0.3572,0.3729,0.3718,0.3343,0.333,0.3387,0.3381,0.3376,0.3371,0.3368,0,0.2121,0.2157,0.2321,0.2369,0.2446,0.2562,0.2629,0.281,0.2879,0.3128,0.3161,0.3366,0.3458,0.3459,0.3572,0.3601,0.3554,0.3529,0.3396,0.3335,0.3316,0.3311,0.3305,0.3359,0.3358,0.3357,0.3355,0,0.2028,0.2117,0.2179,0.2279,0.2366,0.2437,0.2558,0.2595,0.2789,0.2984,0.3061,0.3128,0.3254,0.3325,0.3389,0.3392,0.3523,0.3473,0.3482,0.3357,0.3302,0.3287,0.3287,0.3337,0.334,0.3342,0.3343,0,0.197,0.1991,0.2091,0.2159,0.2252,0.2267,0.2355,0.243,0.2528,0.2797,0.2817,0.3025,0.3217,0.3219,0.327,0.3272,0.3203,0.3071,0.3099,0.3121,0.2977,0.2866,0.2761,0,0,0,0,0,0.1891,0.1896,0.1952,0.2002,0.2082,0.2138,0.2273,0.2364,0.256,0.2544,0.2675,0.2773,0.2856,0.297,0.2917,0.3145,0.3213,0.3067,0.3074,0.3237,0.3258,0.3111,0,0,0,0,0,0,0.1834,0.1887,0.1898,0.185,0.1855,0.1915,0.1994,0.2132,0.2138,0.2361,0.2431,0.2604,0.2738,0.2867,0.2867,0.2899,0.2843,0.3207,0.3199,0.3225,0.3244,0.3261,0.3118,0,0,0,0,0]},{"header":{"parameterUnit":"m.s-1","parameterCategory":2,"la1":30.2991,"la2":30.254,"lo1":-89.0895,"lo2":-89.0444,"dy":0.0017,"dx":0.0017,"nx":28,"ny":28,"refTime":"2024-06-06T21:00:00:Z","depth":"4","parameterNumber":3,"parameterNumberName":"V-component_of_CURRENTS"},"data":[0,0,0,0,0,0,0,0,0,0,0,0,0,0,0,0,0,0,0,0,0,0,0,0,0,0,0,0,0,0,0,0,0,0,0,0,0,0,0,0,0,0,0,0,0,0,0,0,0,0,0,0,0,0,0,0,0,0,0.0108,0.0107,0,0.0055,0.0054,0.0053,0.0016,0.0016,0.0016,0.0016,-0.0047,-0.0049,-0.005,0,0,0,0,0,0,0,0,0,0,0,0,0,0.0129,0.0129,0.0108,0.0107,0.0107,0.0055,0.0054,0.0053,0.0016,0.0016,0.0016,0.0016,-0.0047,-0.0049,-0.005,0,0,0,0,0,0,0,0,0,0,0,0,0,0.0101,0.0129,0.0108,0.0083,0.0081,0.0055,0.0054,0.0053,0.0016,0.0016,0.0016,0.0016,-0.0046,-0.0048,-0.0051,-0.0061,0,0,-0.0058,-0.0059,0,0,0,0,0,0,0,0,0.0103,0.01,0.0088,0.0085,0.0082,0.0043,0.0038,0.0015,0.0016,0.0039,0.0016,0.0015,-0.0017,-0.0021,-0.0033,-0.0064,-0.0067,-0.0058,-0.0059,-0.006,-0.0061,0,0,0,0,0,0,0,0.0105,0.0102,0.0085,0.0087,0.0084,0.0059,0.0055,0.0033,0.0011,0.0037,0.0035,0.0031,-0.0018,-0.0031,-0.0035,-0.0068,-0.0058,-0.006,-0.0062,-0.0062,-0.0091,-0.0091,0,0,0,0,0,0,0.0118,0.0104,0.0087,0.0084,0.0094,0.0059,0.0054,0.0055,0.0012,0.0006,0.0032,0.003,-0.0027,-0.0032,-0.0037,-0.0027,-0.006,-0.0063,-0.0064,-0.0092,-0.0091,-0.0091,0,0,0,0,0,0,0.0118,0.0117,0.0089,0.0094,0.0089,0.0059,0.0059,0.0054,0.0045,0.0008,0.0001,0.003,-0.0027,-0.0034,-0.005,-0.0031,-0.0064,-0.0066,-0.0093,-0.0092,-0.0091,-0.0024,0,0,0,0,0,0,0.0119,0.0117,0.0122,0.0095,0.0089,0.0082,0.006,0.0053,0.0044,0.0042,0.0005,-0.0002,-0.0028,-0.0046,-0.0052,-0.0035,-0.0068,-0.0094,-0.0092,-0.0091,-0.0027,-0.002,-0.0015,0,0,0,0,0,0.012,0.0131,0.0123,0.0121,0.0097,0.0083,0.0078,0.0054,0.0045,0.0045,0.002,-0.0,-0.0043,-0.0048,-0.0055,-0.0038,-0.0094,-0.0093,-0.0091,-0.0029,-0.0022,-0.0015,0,0,0,0,0,0,0.0141,0.0127,0.0118,0.0123,0.0108,0.0078,0.0077,0.0061,0.0041,0.004,0.0003,-0.0005,-0.0012,-0.0035,-0.0039,-0.0043,-0.007,-0.007,-0.002,-0.0013,-0.0008,0.0011,-0.007,0,0,0,0,0,0.0149,0.0156,0.0134,0.0139,0.0135,0.0107,0.0099,0.0085,0.0063,0.0054,0.0028,0.0004,-0.0012,-0.002,-0.0043,-0.0045,-0.0078,-0.0038,-0.0032,-0.0027,-0.0017,-0.005,-0.0046,-0.0086,-0.0086,-0.0086,0,0,0.0159,0.0153,0.0156,0.0145,0.0131,0.0134,0.0102,0.0097,0.0103,0.0051,0.005,0.0021,-0.001,-0.0014,-0.0018,-0.0029,-0.0035,-0.0025,-0.0021,-0.0013,-0.0048,-0.0044,-0.0041,-0.0085,-0.0085,-0.0085,0,0,0.0185,0.0178,0.0191,0.0185,0.0172,0.0157,0.016,0.0135,0.0127,0.0119,0.0087,0.0071,0.0042,0.0027,0.0015,0.004,-0.0006,0.0033,0.008,0.0048,0.0051,0.0054,0.0009,0.0007,0.0039,0.004,0.004,0,0.0197,0.0214,0.0193,0.0204,0.0209,0.0174,0.0192,0.0178,0.0151,0.0155,0.013,0.0095,0.0065,0.0068,0.0075,0.0054,0.0021,0.0057,0.0056,0.0058,0.0059,0.0012,0.0009,0.0043,0.0043,0.0042,0.0042,0,0.0231,0.0246,0.0255,0.0262,0.0262,0.0272,0.0255,0.0255,0.024,0.0225,0.0219,0.0171,0.0155,0.0141,0.0114,0.0116,0.0083,0.0064,0.004,0.0067,0.0016,0.0011,0.0048,0.0047,0.0046,0.0045,0,0,0.0259,0.0276,0.0282,0.0304,0.0298,0.0307,0.0321,0.0328,0.0351,0.031,0.0329,0.0288,0.0259,0.0244,0.0204,0.0174,0.0146,0.0128,0.0125,0.0087,0.0063,0.0046,0.0038,0.0123,0.0123,0.0123,0.002,0,0.0294,0.0338,0.0334,0.0383,0.0407,0.0392,0.0416,0.0417,0.0407,0.0413,0.0363,0.0362,0.0299,0.0296,0.0255,0.0177,0.0138,0.0174,0.004,0.0036,0.0021,0.0035,0.0122,0.0016,0.0015,0.0014,0.0014,0,0.0332,0.0361,0.0414,0.0463,0.0473,0.0496,0.0537,0.0555,0.055,0.0542,0.0519,0.0472,0.0429,0.0371,0.0246,0.027,0.0176,0.0104,0.0098,0.006,0.0012,-0.0015,0.0005,0.0005,0.0006,0.0007,0.0007,0,0.0374,0.0422,0.0473,0.0486,0.0526,0.0557,0.0585,0.0599,0.064,0.0629,0.0648,0.0569,0.0546,0.0419,0.0265,0.0256,0.0115,0.0084,-0.0024,-0.0028,-0.0013,-0.0015,-0.0005,-0.0005,-0.0005,-0.0004,-0.0004,0,0.0417,0.0461,0.0502,0.053,0.0614,0.0619,0.0703,0.0717,0.0749,0.0806,0.0725,0.0734,0.0558,0.0452,0.0296,0.0123,0.0135,-0.0012,-0.0049,0.0016,0.0019,-0.0018,-0.0018,-0.0008,-0.0007,-0.0007,-0.0006,0,0.0452,0.0474,0.0544,0.0603,0.0637,0.0699,0.08,0.0855,0.0874,0.0943,0.0948,0.0864,0.0722,0.0529,0.0319,0.018,0.0007,-0.006,0.0021,-0.0011,-0.0128,-0.0123,-0.0188,-0.019,-0.0191,-0.0192,-0.0192,0,0.0471,0.0509,0.0605,0.0663,0.0696,0.0793,0.0866,0.092,0.0984,0.1021,0.1056,0.0947,0.086,0.0557,0.0335,0.0032,-0.0016,-0.0116,-0.0123,-0.0114,-0.0144,-0.0137,-0.0131,-0.0194,-0.0194,-0.0195,-0.0195,0,0.0512,0.0545,0.0603,0.0725,0.0814,0.0926,0.103,0.1086,0.1148,0.1165,0.1151,0.0995,0.083,0.0569,0.0333,0.0114,-0.0056,-0.0129,-0.0129,-0.0135,-0.0122,-0.0149,-0.0142,-0.0199,-0.0198,-0.0198,-0.0198,0,0.0546,0.0594,0.0676,0.0783,0.0903,0.1021,0.1075,0.1147,0.1212,0.124,0.1227,0.1047,0.094,0.0611,0.0396,0.0176,0.0111,0.0028,0.0019,0.002,0.0104,0.0152,0.0136,0,0,0,0,0,0.0576,0.0631,0.073,0.0851,0.0968,0.1047,0.1169,0.1209,0.1264,0.1269,0.1255,0.1101,0.0787,0.065,0.0429,0.0349,0.0056,0.0079,-0.0048,-0.022,-0.0216,-0.0155,0,0,0,0,0,0,0.0597,0.0685,0.0728,0.0886,0.0976,0.1121,0.1203,0.1242,0.1244,0.1258,0.1098,0.103,0.0724,0.0916,0.0421,0.0355,0.0239,-0.0062,-0.0068,-0.0222,-0.0218,-0.0215,-0.0151,0,0,0,0,0]}]]